Etusivu
METAR-TAF:

METAR-TAF

Lentoasemat :

Lycksele, Ruotsi

Leveyspiiri: 64-32-51N, Pituuspiiri: 018-43-03E, korkeus merenpinnasta: 211 m

Tämänhetkinen sää

Tämä raportti tehtiin 14 minuuttia sitten, kello 17.50 UTC
tyyntä
Lämpötila -17°C
Kosteus 84%
Ilmanpaine 1030 hPa
Näkyvyys: 0900 m
heikkoa lumisadetta

METAR: ESNL 191750Z AUTO 00000KT 0900 R14/P2000N R32/P2000N -SN FEW010/// SCT018/// BKN027/// M17/M19 Q1030

Aika: 19:04 (18:04 UTC)


TAF: puuttuu

Säähavainnot ja -ennusteet yli 4000 lentoasemalta (METAR- ja TAF-raportit).

Käytössä olevat sääasemat on merkitty karttaan keltaisilla ja punaisilla pisteillä.

Aseta hiiri pisteen päälle nähdäksesi sääaseman nimen.

Klikkaa sitten nähdäksesi säähavainnot ja -ennusteet.

Kartan vaihtaminen: klikkaa mustalla rastilla varustettuja vihreitä pisteitä, niin voit zoomata sisään; viivalla varustettua vihreää pistettä, niin voit zoomata ulos tai vihreitä nuolia, niin pääset viereisille kartoille.


METAR-TAF: